Wind_Speed
4 3 3 5 5 6 6 6 6 7 7 8 8 8 8 7 7 7 7 7 6 6 6 6 6 6 6 5 5 5 6 6 5 5 6 6 6 8 7 7 7 7 7
4 4 4 5 5 6 7 7 6 6 6 7 7 8 7 7 7 6 6 6 6 6 5 6 5 6 5 4 4 5 5 6 5 5 6 6 7 7 7 7 7 6 6
5 4 5 5 5 6 7 7 6 6 6 6 7 8 8 7 7 6 6 6 6 6 5 5 5 5 5 5 4 5 5 5 5 5 5 6 7 7 7 7 7 6 6
5 5 5 5 5 6 6 6 6 7 7 7 7 7 8 7 7 6 6 6 6 5 5 5 5 5 5 5 5 4 4 4 4 4 5 6 6 7 7 7 6 6 6
5 5 5 5 5 5 6 5 6 8 7 7 7 7 7 7 7 6 6 5 5 5 5 5 5 5 5 5 4 4 4 4 4 4 4 5 6 6 6 6 5 5 5
6 6 6 5 5 5 6 6 6 7 7 6 6 6 6 7 7 6 5 5 5 5 5 5 5 5 4 4 4 3 3 3 3 3 4 5 5 6 5 5 4 4 5
7 6 6 6 6 6 6 6 6 7 7 6 6 6 6 6 6 6 5 5 5 5 5 4 4 4 4 4 3 3 2 3 3 3 3 4 4 5 5 4 3 4 4
7 7 7 6 7 6 6 5 5 6 6 6 6 6 6 6 6 6 5 4 4 5 5 4 4 4 3 3 3 2 2 2 2 2 3 4 4 4 4 3 3 3 3
8 7 7 7 7 6 6 6 6 6 6 7 7 6 6 6 6 5 5 4 4 4 4 4 4 4 3 3 2 2 1 1 1 2 3 3 3 3 4 3 2 3 3
9 8 8 7 7 7 6 5 5 5 6 6 6 6 5 5 5 5 4 4 4 3 3 4 4 4 4 3 2 2 1 2 2 2 3 3 3 4 4 3 3 3 3
11 10 9 9 8 7 6 5 4 5 5 5 5 5 5 5 5 5 5 4 4 3 3 4 4 4 4 3 3 2 2 2 2 2 3 3 4 4 4 4 3 3 3
12 11 10 9 8 7 6 5 5 5 5 4 5 4 5 5 5 5 5 5 4 4 4 3 3 4 4 3 3 3 3 3 3 3 3 3 4 5 5 5 4 5 5
13 12 11 10 8 7 7 7 6 5 4 4 4 4 4 4 5 5 5 5 5 5 4 4 3 3 4 4 3 3 3 4 3 3 3 4 4 5 5 6 5 6 6
14 13 12 11 10 8 8 8 7 6 5 5 4 3 3 4 4 4 4 5 5 5 5 4 4 4 4 4 4 4 5 5 4 4 4 4 5 6 6 7 7 7 7
14 13 12 11 11 10 9 8 7 7 6 5 4 3 3 3 4 4 4 5 5 5 5 4 4 4 4 4 5 5 5 6 5 5 5 5 6 6 7 7 8 8 8
14 14 13 12 11 11 10 8 7 7 6 5 4 4 2 2 3 4 4 5 4 4 5 5 5 5 5 5 5 5 5 6 6 5 5 6 6 6 7 8 8 9 9
14 14 13 12 12 11 10 10 8 7 6 5 4 3 2 2 1 2 3 4 4 4 5 5 6 5 6 6 6 6 6 6 6 6 6 7 7 8 8 8 8 9 10
13 13 13 12 11 11 10 10 9 8 6 5 4 3 3 2 1 1 2 3 4 4 5 6 6 6 6 6 6 6 7 7 7 7 7 7 7 8 9 9 9 9 10
12 12 12 12 11 11 10 10 10 8 7 6 5 4 3 2 2 2 2 2 4 4 5 6 6 6 6 6 7 6 7 8 8 8 8 9 9 9 9 9 9 10 11
11 11 11 11 11 11 11 11 10 9 9 8 6 5 4 3 3 2 2 2 3 4 4 5 6 6 6 7 7 7 8 8 9 9 10 10 9 9 9 10 10 11 12
10 10 9 10 10 10 10 11 10 9 9 9 8 6 5 4 4 3 2 1 2 3 4 5 5 6 6 7 7 8 9 9 10 10 10 10 10 10 11 11 11 12 12
8 8 8 8 8 9 9 9 9 9 9 9 8 7 6 5 4 4 1 1 2 2 3 4 5 5 6 7 7 8 9 9 9 10 11 11 11 11 11 12 12 12 13
7 6 6 7 7 7 7 7 8 8 8 8 7 7 6 6 4 4 3 2 2 3 3 4 5 5 6 7 8 8 9 9 10 10 10 11 11 12 12 12 13 13 13
7 6 6 6 6 6 6 6 6 6 7 7 7 7 7 6 5 4 3 3 3 4 4 4 5 5 6 7 8 8 9 10 10 10 10 11 12 12 13 13 13 13 14
8 7 7 7 7 6 6 5 4 5 6 6 6 6 6 6 6 5 5 4 5 5 5 6 6 6 7 7 7 8 9 9 10 10 11 12 13 13 14 13 14 15 15
9 8 8 7 6 7 7 7 5 5 5 6 6 6 6 6 6 6 6 5 6 6 7 7 8 8 8 8 9 9 9 9 10 10 11 12 13 13 14 14 14 15 15
Wind_Direction
95 110 150 143 140 139 143 143 144 142 146 141 136 133 128 125 128 130 135 137 135 131 132 131 125 122 118 115 107 110 116 114 112 118 119 117 117 118 116 113 112 112 108
91 101 130 140 137 143 146 145 141 145 148 147 140 137 135 135 140 140 144 143 137 128 123 125 129 123 119 116 113 114 118 117 113 113 115 119 121 122 120 117 113 112 109
83 92 119 135 135 141 147 148 145 147 146 147 143 138 138 137 135 136 135 136 135 130 123 122 122 126 122 116 117 116 118 118 116 113 116 124 125 124 124 121 114 113 112
84 96 103 123 132 145 152 155 154 150 146 141 140 140 142 141 134 131 130 133 134 131 122 121 125 119 116 113 116 120 121 118 119 118 124 131 130 126 125 122 117 114 115
82 94 105 111 121 136 147 149 153 153 147 139 137 138 140 144 141 136 133 137 141 137 134 131 131 126 120 117 119 120 118 116 117 120 129 136 136 133 129 125 124 119 116
80 89 100 106 115 125 131 135 147 148 144 143 143 143 143 146 143 139 138 142 140 139 142 138 137 137 136 130 128 123 118 117 116 122 134 143 144 141 136 131 131 128 123
82 90 95 96 103 113 117 123 127 137 142 146 148 149 151 152 154 152 146 151 151 150 147 147 147 141 140 143 141 137 136 124 122 130 141 148 152 150 143 141 143 140 130
77 85 94 95 99 107 112 121 131 139 146 152 153 154 155 153 153 154 152 156 158 161 163 162 159 153 151 155 151 146 144 143 144 151 156 159 158 162 159 157 157 156 149
73 77 85 95 103 110 119 127 136 137 142 147 153 159 161 162 159 159 162 164 166 163 171 177 176 165 165 164 162 160 164 162 165 175 176 176 181 180 176 180 181 179 178
70 73 79 94 100 105 116 128 134 135 141 148 157 166 169 170 171 169 172 176 178 177 180 186 187 185 176 179 188 199 193 194 200 200 193 193 193 191 192 199 203 204 209
67 71 76 82 93 97 108 121 132 142 148 154 164 175 173 173 178 181 180 183 184 189 192 196 198 195 194 198 204 211 212 217 221 228 216 208 209 209 208 207 215 224 235
64 68 72 76 81 85 95 106 121 141 146 150 153 165 170 179 184 188 188 194 196 200 202 201 205 205 206 206 220 229 236 244 242 239 235 230 229 227 226 223 226 236 245
62 65 68 70 72 75 83 88 97 119 133 139 143 149 166 184 188 189 190 188 194 204 209 211 207 213 213 222 234 238 244 251 253 252 248 245 246 241 239 239 241 245 249
60 63 66 65 66 71 77 82 87 96 109 127 136 138 151 166 176 185 194 194 196 204 214 220 230 233 233 238 247 253 251 249 255 259 258 258 258 252 250 252 255 253 254
57 59 61 61 63 67 72 77 82 90 94 103 125 142 153 171 182 184 196 205 211 218 223 231 238 240 237 249 258 261 257 251 259 264 259 261 264 263 260 262 265 265 264
54 55 58 60 59 60 63 67 74 82 84 88 97 98 117 159 194 206 211 213 218 226 236 242 248 254 257 264 265 263 261 254 262 270 265 265 267 267 265 266 268 269 270
53 54 56 59 59 58 59 62 67 69 72 75 80 83 90 102 142 213 227 233 233 238 245 247 250 258 270 274 272 272 268 263 265 268 270 270 271 270 268 268 272 274 275
51 53 55 58 58 57 57 57 57 59 62 65 68 66 61 60 34 276 240 245 245 246 249 249 253 261 271 274 273 272 266 265 266 267 273 278 279 278 273 269 273 278 277
47 50 52 55 57 56 55 51 49 50 56 58 56 49 47 35 13 349 290 264 259 260 261 256 255 260 267 270 270 268 263 266 266 268 275 280 280 281 278 273 274 279 280
42 45 48 51 53 54 51 49 47 48 49 50 49 48 42 26 13 1 332 271 265 267 266 263 263 264 266 267 269 270 271 271 272 273 275 276 275 276 278 279 279 279 281
35 40 42 45 49 49 48 46 46 47 46 46 47 47 41 30 19 10 349 310 282 276 272 270 271 269 268 269 272 272 274 276 275 276 277 276 276 277 278 280 281 281 282
20 30 34 36 42 43 43 43 43 43 41 39 38 39 33 22 15 19 15 344 335 310 293 287 285 280 279 278 277 275 277 280 281 280 277 274 275 277 280 282 283 285 282
2 10 20 20 22 29 32 34 36 35 31 27 26 26 21 13 7 5 5 346 341 319 304 299 297 291 285 285 284 283 284 285 286 284 280 275 275 277 279 281 282 286 286
345 349 354 358 355 2 13 13 19 21 19 19 20 19 16 11 3 352 342 332 325 314 303 303 308 300 292 293 292 287 288 286 286 285 282 279 277 277 278 279 280 284 286
322 326 329 334 338 335 341 348 347 360 7 9 13 10 6 4 1 352 337 324 320 316 308 297 294 295 293 295 298 295 294 289 288 286 284 283 280 278 278 280 280 280 283
304 308 310 312 328 329 327 326 325 337 346 348 346 347 348 349 349 346 336 326 317 313 312 304 296 296 296 292 292 293 293 292 295 290 288 287 284 282 281 281 283 282 284
Height
5863 5863 5863 5863 5864 5865 5865 5866 5867 5869 5870 5871 5872 5873 5874 5875 5877 5878 5879 5880 5881 5882 5883 5884 5885 5885 5886 5887 5887 5888 5888 5888 5889 5889 5890 5890 5890 5891 5891 5892 5892 5893 5893
5863 5863 5863 5864 5865 5865 5866 5867 5868 5869 5870 5871 5872 5874 5875 5877 5878 5879 5880 5881 5882 5883 5884 5885 5885 5886 5887 5888 5888 5889 5889 5889 5890 5890 5890 5890 5891 5891 5892 5893 5893 5894 5894
5864 5864 5864 5864 5865 5866 5867 5867 5869 5870 5871 5872 5873 5875 5876 5878 5879 5880 5881 5882 5883 5884 5885 5885 5886 5887 5888 5888 5889 5889 5890 5890 5890 5891 5891 5891 5892 5892 5893 5894 5894 5895 5895
5865 5865 5865 5865 5865 5866 5867 5868 5869 5870 5872 5873 5874 5875 5877 5878 5880 5881 5882 5883 5884 5885 5885 5886 5887 5888 5888 5889 5890 5890 5891 5891 5891 5891 5892 5892 5893 5893 5894 5895 5895 5896 5896
5866 5866 5866 5866 5866 5867 5868 5869 5870 5871 5872 5873 5875 5876 5878 5879 5880 5881 5882 5883 5884 5885 5886 5887 5888 5888 5889 5890 5891 5891 5891 5891 5892 5892 5892 5893 5894 5894 5895 5895 5896 5896 5897
5867 5867 5867 5867 5867 5867 5868 5869 5870 5871 5873 5874 5875 5877 5878 5879 5881 5882 5883 5884 5885 5886 5887 5887 5888 5889 5890 5890 5891 5891 5892 5892 5892 5893 5893 5894 5894 5895 5895 5896 5896 5897 5897
5869 5868 5868 5868 5868 5869 5869 5870 5871 5872 5873 5874 5876 5877 5878 5880 5881 5882 5883 5884 5885 5886 5887 5888 5888 5889 5890 5891 5891 5892 5892 5893 5893 5893 5894 5894 5895 5895 5896 5896 5897 5897 5897
5870 5870 5869 5869 5870 5870 5870 5871 5872 5873 5874 5875 5876 5878 5879 5880 5881 5882 5884 5885 5886 5886 5887 5888 5889 5889 5890 5891 5892 5892 5893 5893 5893 5894 5894 5895 5895 5896 5896 5897 5897 5898 5898
5871 5871 5871 5871 5871 5871 5872 5872 5873 5874 5875 5876 5877 5878 5879 5880 5881 5883 5884 5885 5886 5886 5887 5888 5889 5890 5890 5891 5892 5892 5893 5893 5893 5894 5894 5895 5895 5896 5896 5897 5897 5898 5898
5873 5872 5872 5872 5872 5872 5873 5873 5874 5875 5875 5876 5877 5878 5879 5880 5882 5883 5884 5885 5886 5887 5887 5888 5889 5890 5891 5891 5892 5892 5893 5893 5893 5893 5894 5895 5895 5896 5896 5897 5897 5898 5898
5875 5874 5874 5874 5874 5874 5874 5874 5875 5875 5876 5876 5877 5878 5879 5880 5881 5882 5884 5885 5886 5887 5887 5888 5889 5890 5890 5891 5892 5892 5892 5893 5893 5893 5894 5894 5895 5895 5896 5896 5897 5898 5898
5877 5876 5876 5875 5875 5875 5875 5875 5875 5876 5876 5877 5878 5878 5879 5880 5881 5882 5883 5884 5885 5887 5887 5888 5889 5890 5890 5891 5891 5892 5892 5893 5893 5893 5893 5894 5895 5895 5895 5896 5897 5897 5898
5880 5879 5878 5877 5877 5877 5876 5876 5876 5876 5877 5877 5878 5879 5879 5880 5881 5882 5883 5884 5885 5886 5887 5888 5889 5889 5890 5891 5891 5892 5892 5892 5892 5893 5893 5894 5894 5895 5895 5895 5896 5896 5897
5882 5881 5880 5879 5879 5878 5878 5877 5877 5877 5878 5878 5879 5879 5880 5881 5882 5883 5884 5884 5885 5886 5887 5888 5888 5889 5890 5890 5891 5891 5892 5892 5892 5892 5893 5893 5893 5894 5894 5895 5895 5895 5896
5884 5883 5882 5881 5880 5880 5879 5879 5879 5879 5879 5879 5879 5880 5880 5881 5882 5883 5883 5884 5885 5886 5886 5887 5888 5889 5889 5890 5890 5890 5891 5891 5892 5892 5892 5892 5893 5893 5893 5893 5894 5894 5894
5886 5885 5884 5883 5882 5881 5881 5880 5880 5880 5880 5880 5880 5880 5881 5881 5882 5883 5883 5884 5884 5885 5886 5887 5887 5888 5889 5889 5889 5889 5890 5890 5891 5891 5891 5892 5892 5892 5892 5892 5892 5893 5893
5889 5887 5886 5885 5884 5883 5883 5882 5881 5881 5881 5881 5881 5881 5881 5881 5882 5882 5883 5883 5884 5885 5885 5886 5887 5887 5888 5888 5888 5889 5889 5889 5890 5890 5890 5890 5890 5890 5891 5891 5891 5891 5891
5891 5890 5888 5887 5886 5885 5884 5884 5883 5882 5882 5882 5882 5882 5881 5882 5882 5882 5883 5883 5883 5884 5884 5885 5886 5886 5887 5887 5888 5888 5888 5888 5889 5889 5889 5889 5889 5889 5889 5889 5889 5889 5889
5893 5892 5890 5889 5888 5887 5886 5885 5884 5884 5883 5882 5882 5882 5882 5882 5882 5882 5882 5882 5883 5883 5884 5884 5885 5885 5885 5886 5886 5887 5887 5887 5888 5888 5888 5888 5888 5887 5887 5887 5887 5887 5887
5895 5893 5892 5891 5890 5889 5888 5887 5886 5885 5884 5883 5883 5883 5882 5882 5882 5882 5882 5882 5882 5883 5883 5884 5884 5884 5884 5885 5885 5885 5886 5886 5886 5886 5886 5886 5886 5886 5886 5885 5885 5885 5885
5897 5895 5894 5892 5891 5890 5889 5888 5887 5886 5885 5884 5884 5883 5883 5882 5882 5881 5882 5882 5882 5882 5883 5883 5883 5883 5883 5883 5884 5884 5884 5884 5884 5884 5884 5884 5884 5884 5883 5883 5883 5882 5882
5898 5896 5895 5893 5892 5891 5890 5890 5888 5887 5886 5885 5885 5884 5883 5883 5882 5882 5882 5882 5881 5882 5882 5882 5882 5882 5882 5882 5882 5882 5882 5883 5882 5882 5882 5881 5881 5881 5881 5881 5880 5880 5879
5898 5897 5896 5894 5893 5892 5891 5891 5889 5888 5887 5886 5885 5885 5884 5883 5882 5882 5882 5881 5881 5881 5881 5881 5881 5880 5880 5880 5880 5880 5880 5880 5880 5880 5879 5879 5879 5879 5878 5878 5877 5877 5876
5898 5897 5896 5895 5893 5892 5892 5891 5890 5889 5888 5887 5886 5885 5884 5883 5883 5882 5882 5881 5881 5881 5880 5880 5880 5879 5879 5879 5878 5878 5878 5878 5878 5877 5877 5876 5876 5876 5876 5875 5875 5874 5873
5897 5896 5895 5894 5893 5892 5891 5890 5890 5889 5888 5887 5886 5884 5884 5883 5883 5882 5881 5881 5880 5880 5879 5879 5878 5878 5877 5877 5877 5876 5876 5875 5875 5875 5874 5874 5873 5873 5872 5872 5871 5870 5870
5895 5894 5894 5893 5892 5891 5890 5890 5889 5889 5888 5887 5885 5884 5883 5882 5882 5881 5881 5880 5880 5879 5878 5877 5877 5876 5876 5875 5875 5874 5874 5873 5873 5872 5871 5871 5870 5870 5869 5868 5868 5867 5866